Погода в Кагуле

Погода в Кагуле : погода сейчас, прогноз погоды и архив. Всё, что Вы хотите узнать о погоде в Кагуле!

Поиск расширенной информации на нашем сайте:

Другие новости

Новости СМИ2

Главная страница сайта

Новости сайта

03.07.2017

Напоминаем, что на нашем специализированном сайте Метеоцентр.Азия вы можете получить высокодетализированные автоматические прогнозы погоды по пунктам России, СНГ и мира в авиационном формате (включающие направление и скорость ветра, видимость, явления погоды, количество и форму облачности, нижнюю и верхнюю границу облачности).

Рекомендуем: п/э упаковка оптом спб

Погода в Кагуле - сегодня

Время (UTC), дата Ветер
(°,м/с) 
Видим.   Явления Облачность Т
(°С)
Тd
(°С)
f(%) Тe
(°С)
Pmin
(гПа)
dP
(гПа)
Po
(мм)
O2
(г/м3)
Тmin Tmax R s Состояние
почвы
12 11.12.17 200 (Ю) 20000 м    9/6 1000 м средняя 
[Sc|Ac trans]
+4.3 -0.7 70 +1  1014.4  -0.8  750  298           
15 11.12.17 210 (ЮЗ) 7{12}  10 км    6/0 средняя, верхняя 
[Ac lent|Ci fib]
+4.8 -0.4 69 +2  1014.7  0.3  750  297           
18 11.12.17 200 (Ю) 6{14}  10 км    ясно 360 м 
+4 -2.4 63 +1  1015.1  0.3  751  298    +6.7       
21 11.12.17 200 (Ю) 10 км    ясно 
+4.1 -2.3 63 +2  1014.7  -0.3  750  298           
00 12.12.17 190 (Ю) 10 км    ясно 
+4 -0.8 71 +1  1014  -0.7  750  298           
03 12.12.17 210 (ЮЗ) 10 км    ясно 
+3.6 -1 72 +2  1013.4  -0.6  749  298           
06 12.12.17 190 (Ю) 10 км    6/0 330 м верхняя 
[Ci sp]
+3.1 -1.1 74 +1  1014.5  750  299  +2.5         
09 12.12.17 210 (ЮЗ) 20000 м    5/0 верхняя 
[Cs]
+6.1 +0.2 66 +4  1014.7  0.4  750  296           
12 12.12.17 220 (ЮЗ) 20000 м    4/0 верхняя 
[Cs]
+10.2 +4.1 66 +10  1013.7  -0.8  750  291           
15 12.12.17 200 (Ю) 10 км    5/0 средняя 
[Ac lent]
+8.9 +4.9 76 +8  1015.2  1.4  751  292           
18 12.12.17 200 (Ю) 10 км    4/4 1000 м 
[Sc]
+7.4 +4.7 83 +6  1015.8  0.5  751  294    +11.8       
21 12.12.17 200 (Ю) 10 км    3/3 1000 м 
[Sc]
+6.2 +3.9 85 +5  1016.7  0.9  752  296           
00 13.12.17 190 (Ю) 4000 м    ясно 
+4.1 +2.9 92 +4  1016.7  -0.2  752  298           
03 13.12.17 200 (Ю) 4000 м  дымка  4/4 600 м 
[Sc]
+3.4 +2.7 95 +2  1016.4  -0.3  752  299           
06 13.12.17 200 (Ю) 4000 м  дымка  6/0 360 м верхняя 
[Cs]
+3 +2.6 97 +2  1016.6  0.2  752  299  +2.6         
09 13.12.17 210 (ЮЗ) 4000 м  дымка  8/0 средняя 
[Ac trans]
+4.9 +3.6 91 +5  1016.5  752  297           
12 13.12.17 260 (З) 10 км    9/0 средняя, верхняя 
[Ac trans|Ci sp]
+7.8 +5.1 83 +8  1014.9  -1.4  751  293           
15 13.12.17 330 (СЗ) 4000 м  дымка  10/0 средняя 
[Ac und]
+5.8 +4.9 94 +7  1015.6  0.6  751  296           
18 13.12.17 020 (С) 4000 м  дымка  10/0 средняя 
[Ac As]
+5.6 +4.4 92 +4  1015.2  -0.5  751  296    +7.9       
21 13.12.17 010 (С) 4000 м  дымка  10/0 средняя 
[Ac As]
+4 +2.8 92 +3  1014.5  -0.7  750  297           
00 14.12.17 тихо ()   4000 м  дымка  10/10 600 м 
[Sc]
+3.5 +2.5 93 +4  1013.1  -1.4  749  298           
03 14.12.17 тихо ()   4000 м  слаб. дождь  10/10 600 м 
[Ns]
+3.2 +2.3 94 +3  1012.1  -1  748  298           
06 14.12.17 тихо ()   4000 м  дымка{дождь}  10/10 600 м 
[Sc]
+3.1 +2.5 96 +3  1012.3  0.2  749  298  +0.3       
09 14.12.17 тихо ()   0200 м  туман  ?/?  
+4.1 +4.1 100 +4  1012.2  -0.1  749  296           
12 14.12.17 220 (ЮЗ) 2000 м  в посл. час туман  10/10 300 м 
[St]
+4.7 +4.4 98 +3  1010.4  -1.7  747  295           
Время (UTC), дата Ветер
(°,м/с) 
Видим.   Явления Облачность Т
(°С)
Тd
(°С)
f(%) Тe
(°С)
Pmin
(гПа)
dP
(гПа)
Po
(мм)
O2
(г/м3)
Тmin Tmax R s Состояние
почвы

Для получения пояснительной информации подведите курсор к названию столбца.

ПОГОДА в Кагуле - архив

Всё, что Вы хотите узнать о погоде в Кагуле - удобно и подробно!

Выберите нужную дату (начиная с 1 января 2015* года) и нажмите кнопку "Найти".
Будут отображены архивные сводки погоды по пункту Кагул, начиная с указанной даты.


Отображать данные в формате CSV (для использования в таблицах Excel)


Внимание! Наш архив погоды предназначен исключительно для личного некоммерческого использования в познавательных целях. Если Вам необходимы официальные справки о состоянии погоды (для производственных, юридических, коммерческих и т.п. целей), обращайтесь в органы Росгидромета.

*Примечание: данная дата относится к архиву по метеостанциям СССР (Россия, СНГ, Балтия).
Архив по метеостанциям Зарубежной Европы и Азии (кроме Китая) хранится 10 дней, по другим регионам земного шара (Китай, Африка, Америка, Австралия, Океания) - 1 день.

Кагул - район местоположения метеостанции


Название, широта, долгота, высота метеостанции:
Кагул 45.9°ш. 28.2°д. 39 м над ур. моря [Украина]

Дополнительная информация

В oтличие oт бoльшинства пoгoдных сайтoв мы публикуем пoдрoбную метеoинфoрмацию в детальнoм прoфессиoнальнoм фoрмате.

Характеристики температуры и влажнoсти вoздуха измеряются на высoте 2 м в тени вдали oт зданий и деревьев.
Скoрoсть ветра измеряется на высoте 10 м (на урoвне рoста челoвека скoрoсть ветра ниже в 1.5-2 раза). Если метеoстанция нахoдится в гoрoде или в лесу, тo скoрoсть ветра занижена на 2-4 м/с пo сравнению с oткрытым местoм. Скoрoсть ветра над акватoриями крупных рек и oзёр, а также на вершинах хoлмoв на 2-5 м/с выше, чем в oбычных услoвиях.
Атмoсфернoе давление в разных тoчках местнoсти мoжет значительнo oтличаться oт давления на метеoстанции, в зависимoсти oт услoвий рельефа (при пoдъёме на 10 м давление пoнижается примернo на 1 мм рт.ст.).